{"data":{"norad_id":68872,"epoch":"2026-05-24T23:18:47.528352Z","epoch_age_seconds":77225,"freshness":"FRESH","line1":"1 68872U 26095J   26144.97138343  .00020308  00000+0  58611-3 0  9994","line2":"2 68872  51.8730 354.9168 0010743 216.6826 143.3425 15.35612159  4159","mean_motion":15.35612159,"eccentricity":0.0010743,"inclination_deg":51.873,"raan_deg":354.9168,"arg_perigee_deg":216.6826,"mean_anomaly_deg":143.3425,"bstar":0.00058611,"rev_number":415,"period_min":93.773677914724,"perigee_km":451.75757161182,"apogee_km":466.44806508553,"semimajor_km":6837.2398183487,"source":"CELESTRAK","updated_at":"2026-05-25T13:38:08.646968Z"}}